NOAA NWS Hourly Roundups by Site

Regional Weather Roundup for Omaha, NE

To Select Another Site Choose from List

Select Site:  

000
ASUS43 KOAX 191103
RWRNE

WEATHER ROUNDUP FOR NEBRASKA
NATIONAL WEATHER SERVICE OMAHA NE
500 AM CST TUE FEB 19 2019

NOTES: SATELLITE DATA IS BEING USED TO AUGMENT CLOUD COVER ABOVE
       12000 FEET.
       "FAIR" INDICATES FEW OR NO CLOUDS BELOW 12,000 FEET WITH NO
       SIGNIFICANT WEATHER AND/OR OBSTRUCTIONS TO VISIBILITY.


NEZ001>004-019>022-054>056-191200-
NEBRASKA PANHANDLE

CITY           SKY/WX    TMP DP  RH WIND       PRES   REMARKS
SCOTTSBLUFF    CLOUDY    12   9  87 E14       30.06F WCI  -3
ALLIANCE       FLURRIES  10   7  87 SE14      30.09F WCI  -6
CHADRON        CLOUDY    12   5  73 E3        30.14F
GORDON         FLURRIES   7   3  83 SE3       30.14F
KIMBALL        LGT SNOW  11   8  87 SE13      29.97F WCI  -4
SIDNEY         LGT SNOW   9   6  88 SE17      30.05F FOG     WCI  -9
$$

NEZ057>060-069>072-079>082-191200-
SOUTHWEST NEBRASKA

CITY           SKY/WX    TMP DP  RH WIND       PRES   REMARKS
NORTH PLATTE   CLOUDY     7   5  91 SE6       30.27F WCI  -3
IMPERIAL       FLURRIES  12   7  80 SE13      30.19F WCI  -3
LEXINGTON      FLURRIES  14  10  85 SE9       30.34S WCI   2
MCCOOK         CLOUDY     9   6  88 E6        30.30F WCI  -1
OGALLALA       LGT SNOW  13  10  85 SE14      30.19F WCI  -2
$$

NEZ005>010-023>029-035>040-094-191200-
NORTH CENTRAL NEBRASKA

CITY           SKY/WX    TMP DP  RH WIND       PRES   REMARKS
VALENTINE      CLOUDY    -3  -8  79 NE6       30.29F WCI -15
AINSWORTH      FLURRIES   8   6  90 SE7       30.30F WCI  -3
BROKEN BOW     CLOUDY    12   9  87 SE7       30.31F WCI   1
O`NEILL        FLURRIES   8   4  86 SE3       30.39F
ORD            CLOUDY    11   8  88 SE5       30.37F WCI   3
THEDFORD       FLURRIES  11   8  88 CALM      30.26F
$$

NEZ041-046>049-061>064-073>077-083>087-191200-
SOUTH CENTRAL NEBRASKA

CITY           SKY/WX    TMP DP  RH WIND       PRES   REMARKS
GRAND ISLAND   CLOUDY    13   9  84 E8        30.41F WCI   2
AURORA         CLOUDY    12   9  86 E6        30.42F WCI   3
HASTINGS       CLOUDY    14  11  87 E6        30.40F WCI   5
HEBRON         CLOUDY     8   6  89 CALM      30.45F
HOLDREGE       CLOUDY    13  12  95 SE8       30.35F WCI   2
KEARNEY        FLURRIES  13  10  88 SE8       30.38F WCI   2
YORK           CLOUDY    10   9  92 CALM      30.45F
$$

NEZ011>018-030>034-042>045-191200-
NORTHEAST NEBRASKA

CITY           SKY/WX    TMP DP  RH WIND       PRES   REMARKS
NORFOLK        CLOUDY     4   2  91 CALM      30.46F
ALBION         CLOUDY    10   6  85 CALM      30.44F
BLAIR          FAIR       4   1  86 NE5       30.50F WCI  -5
COLUMBUS       MOCLDY     0  -4  83 SE3       30.49F
FREMONT        FAIR      -2  -6  82 CALM      30.52S
TEKAMAH        FOG       -8 -11  86 N3        30.55S VSB 1/2
WAYNE          CLOUDY     1  -4  78 CALM      30.49F
$$

NEZ050>053-065>068-078-088>093-191200-
SOUTHEAST NEBRASKA

CITY           SKY/WX    TMP DP  RH WIND       PRES   REMARKS
LINCOLN        CLOUDY     7   3  84 N5        30.52S WCI  -2
OMAHA EPPLEY   FAIR      -3  -8  79 N6        30.55F FOG     WCI -15
BEATRICE       MOCLDY    10   7  87 NE7       30.47F WCI   0
FALLS CITY     FAIR       8   4  83 N5        30.51F WCI   0
NEBRASKA CITY  FAIR       6   2  82 CALM      30.52R
PLATTSMOUTH    FAIR       5   3  88 NE3       30.52R
$$

NEZ044-045-051>053-067-191200-
OMAHA AREA

CITY           SKY/WX    TMP DP  RH WIND       PRES   REMARKS
OMAHA EPPLEY   FAIR      -3  -8  79 N6        30.55F FOG     WCI -15
BLAIR          FAIR       4   1  86 NE5       30.50F WCI  -5
FREMONT        FAIR      -2  -6  82 CALM      30.52S
MILLARD        FAIR       8   4  86 CALM      30.53S
OFFUTT AFB     FAIR      -3  -3  98 CALM      30.53S FOG
PLATTSMOUTH    FAIR       5   3  88 NE3       30.52R
WAHOO          FAIR      -2  -6  86 NW3       30.52R
$$


 

View Past Reports for Omaha, NE.

Products Courtesy of NOAA-NWS
NWS Information Parsing Script by Ken True at Saratoga Weather - Script by SE Lincoln Weather.